Taba International, Egypt

3:15 AM EET on December 14, 2017 (GMT +0200)
Taba International

Weather History for HETB - March, 2013

Change the Weather History Date:

Sunday, March 10, 2013

  Actual Average Record
Temperature  
Mean Temperature 56 °F -  
Max Temperature 68 °F - - ()
Min Temperature 44 °F - - ()
Degree Days  
Heating Degree Days 9    
Growing Degree Days 6 (Base 50)    
Moisture  
Dew Point 30 °F    
Average Humidity 36    
Maximum Humidity 50    
Minimum Humidity 24    
Precipitation  
Precipitation 0.00 in - - ()
Sea Level Pressure  
Sea Level Pressure 30.06 in    
Wind  
Wind Speed 2 mph ()    
Max Wind Speed 12 mph    
Max Gust Speed -    
T = Trace of Precipitation, MM = Missing Value Source: Averaged Metar Reports

Daily Weather History Graph

Daily Weather History Graph

Search for Another Location

Airport or City:

Trip Planner

Search our weather history database for the weather conditions in past years. The results will help you decide how hot, cold, wet, or windy it might be!

Date:

Astronomy

Mar. 10, 2013 Rise Set
Actual Time 5:56 AM EET 5:46 PM EET
Civil Twilight 5:32 AM EET 6:09 PM EET
Nautical Twilight 5:05 AM EET 6:37 PM EET
Astronomical Twilight 4:37 AM EET 7:05 PM EET
Moon 4:39 AM EET (3/10) 4:33 PM EET (3/10)
Length of Visible Light 12h 37m
Length of Day
11h 49m
Waning Crescent, 2% of the Moon is Illuminated
Mar 10
Waning Crescent
Mar 11
New
Mar 19
First Quarter
Mar 27
Full
Apr 3
Last Quarter

Hourly Weather History & Observations

Time (EET) Temp. Dew Point Humidity Pressure Visibility Wind Dir Wind Speed Gust Speed Precip Events Conditions
12:00 AM 51.8 °F 30.2 °F 44% 30.04 in - Calm Calm - N/A   Clear
1:00 AM 48.2 °F 28.4 °F 46% 30.04 in - Calm Calm - N/A   Clear
2:00 AM 48.2 °F 26.6 °F 43% 30.04 in - Calm Calm - N/A   Clear
3:00 AM 46.4 °F 26.6 °F 46% 30.04 in - Calm Calm - N/A   Clear
4:00 AM 46.4 °F 28.4 °F 50% 30.04 in - Calm Calm - N/A   Clear
5:00 AM 44.6 °F 21.2 °F 39% 30.04 in - Calm Calm - N/A   Clear
6:00 AM 44.6 °F 23.0 °F 43% 30.04 in - Calm Calm - N/A   Clear
7:00 AM 48.2 °F 23.0 °F 37% 30.06 in - Calm Calm - N/A   Clear
8:00 AM 53.6 °F 24.8 °F 33% 30.06 in - Calm Calm - N/A   Clear
9:00 AM 57.2 °F 23.0 °F 27% 30.09 in - Calm Calm - N/A   Clear
10:00 AM 60.8 °F 33.8 °F 36% 30.09 in - Calm Calm - N/A   Clear
11:00 AM 62.6 °F 33.8 °F 34% 30.09 in - NW 5.8 mph - N/A   Clear
12:00 PM 66.2 °F 30.2 °F 26% 30.06 in - NW 4.6 mph - N/A   Clear
1:00 PM 68.0 °F 30.2 °F 24% 30.04 in - NW 11.5 mph - N/A   Clear
2:00 PM 68.0 °F 32.0 °F 26% 30.04 in - NW 5.8 mph - N/A   Clear
3:00 PM 68.0 °F 33.8 °F 28% 30.04 in - North - - N/A   Clear
4:00 PM 68.0 °F 32.0 °F 26% 30.04 in - NNW 4.6 mph - N/A   Clear
5:00 PM 68.0 °F 33.8 °F 28% 30.04 in - NW 4.6 mph - N/A   Clear
7:00 PM 64.4 °F 33.8 °F 32% 30.06 in - NNW 9.2 mph - N/A   Clear
8:00 PM 60.8 °F 33.8 °F 36% 30.09 in - NNW 5.8 mph - N/A   Clear
9:00 PM 60.8 °F 33.8 °F 36% 30.09 in - NNW 5.8 mph - N/A   Clear
10:00 PM 60.8 °F 33.8 °F 36% 30.09 in - Calm Calm - N/A   Clear
11:00 PM 55.4 °F 32.0 °F 41% 30.09 in - Calm Calm - N/A   Clear